sat.trackr.live / text

‹ back to catalog

CURIUM ONE

NORAD 60242 · 2024-128H

PAYLOAD ACTIVE UNKNOWN

§ Identity

Operator
Country
GER
Launch date
2024-07-09
Launch site
FRGUI
Launch vehicle
Mass (kg)
RCS (m²)

External: N2YO · Heavens-Above · Gunter

§ Orbital elements

Epoch: 2026-05-24T18:20:23.467200Z

Period
95.23 min
Inclination
61.9791°
Eccentricity
0.0043477
Mean motion
15.12086397 rev/d
Perigee alt
499.8 km
Apogee alt
559.9 km
Semi-major
6,908.0 km
B*
4.7373e-4
RAAN
288.7115°
Arg perigee
125.9418°
Mean anomaly
234.5723°
Rev number
10,291

§ Raw data

CURIUM ONE1 60242U 24128H   26144.76416050  .00008163  00000+0  47373-3 0  99912 60242  61.9791 288.7115 0043477 125.9418 234.5723 15.12086397102917

JSON: /api/v1/satellites/60242 · /tle

For live sub-satellite position, see the globe view (requires WebGL).

§ Visibility from observer

Set your observer location to see the next 7 days of passes ≥ 10°. The values pass through the URL so the page stays shareable.

No JS? Fill the form by hand. The geolocation button needs JavaScript.

§ Radio — SatNOGS DB

ModeDescriptionDownlinkUplink
GMSK UHF 50k GMSK TLM 436.240 MHz

1 transmitter · refreshed weekly from db.satnogs.org